Regional Weather Roundup
Issued by NWS Wilmington, NC

Home | Current Version | Previous Version | Text Only | Print | Product List | Glossary On
Versions: 1 2 3 4 5 6 7 8 9 10 11 12 13 14 15 16 17 18 19 20 21 22 23 24 25 26 27 28 29 30 31 32 33 34 35 36 37 38 39 40 41 42 43 44 45 46 47 48 49 50
000
ASUS42 KILM 010513
RWRILM
RWRILM
REGIONAL HOURLY WEATHER ROUNDUP
NATIONAL WEATHER SERVICE WILMINGTON NC
100 AM EDT TUE SEP 01 2015

NOTE: "FAIR" INDICATES FEW OR NO CLOUDS BELOW 12,000 FEET WITH NO
SIGNIFICANT WEATHER AND/OR OBSTRUCTIONS TO VISIBILITY.

...............WFO WILMINGTON COUNTY WARNING AREA...............

......COASTAL NC AND SC COUNTIES......

CITY           SKY/WX    TMP DP  RH WIND       PRES   REMARKS
WILMINGTON     CLOUDY    75  74  96 W5        30.05S
N MYRTLE BEACH FOG       73  72  96 CALM      30.06F VSB 1/4
MYRTLE BEACH   CLEAR     73  70  88 CALM      30.09S

......INLAND NC AND SC COUNTIES.......

CITY           SKY/WX    TMP DP  RH WIND       PRES   REMARKS
LUMBERTON      CLEAR     71  69  93 W3        30.07F
ELIZABETHTOWN  PTCLDY    74  74  99 CALM      30.07S
WHITEVILLE     FOG       74  73  96 CALM      30.07F VSB 1/4
FLORENCE       CLEAR     71  69  93 W3        30.09S
DARLINGTON     CLEAR     70  64  83 CALM      30.10S

....................REST OF NORTH CAROLINA......................

.........EASTERN NC.........

CITY           SKY/WX    TMP DP  RH WIND       PRES   REMARKS
CAPE HATTERAS  CLEAR     79  74  84 S9        30.05F
JACKSONVILLE   CLOUDY    73  70  88 CALM      30.06R VSB 1
MOREHEAD CITY  CLOUDY    77  77 100 CALM      30.04F
KENANSVILLE      N/A     74  73  96 W3        30.07S
NEW BERN       MOCLDY    75  73  93 CALM      30.06S
ELIZABETH CITY LGT RAIN  74  73  97 E3        30.07F

.........CENTRAL NC.........

CITY           SKY/WX    TMP DP  RH WIND       PRES   REMARKS
RALEIGH DURHAM MOCLDY    70  68  94 CALM      30.09F FOG
ROCKY MOUNT    MOCLDY    72  71  97 CALM      30.07S FOG
ROANOKE RAPIDS NOT AVBL
FAYETTEVILLE   MOCLDY    73  71  93 NW3       30.07S
HOFFMAN        CLEAR     68  67  97 CALM      30.09S

.........WESTERN NC.........

CITY           SKY/WX    TMP DP  RH WIND       PRES   REMARKS
CHARLOTTE      CLEAR     73  68  84 CALM      30.12S
GREENSBORO     CLEAR     71  68  90 CALM      30.12R
HICKORY        NOT AVBL
BOONE          NOT AVBL
ASHEVILLE      NOT AVBL

.....................REST OF SOUTH CAROLINA.....................

.........EASTERN SC.........

CITY           SKY/WX    TMP DP  RH WIND       PRES   REMARKS
CHARLESTON     PTCLDY    74  71  91 CALM      30.08F
BEAUFORT MCAS  CLEAR     73  72  96 CALM      30.09S
HILTON HEAD    PTCLDY    73  73 100 CALM      30.10S

.........CENTRAL SC.........

CITY           SKY/WX    TMP DP  RH WIND       PRES   REMARKS
COLUMBIA       CLEAR     74  68  81 CALM      30.09S
ORANGEBURG     CLEAR     72  70  93 CALM      30.10F
SUMTER SHAW    CLEAR     73  70  92 CALM      30.07F

.........WESTERN SC.........

CITY           SKY/WX    TMP DP  RH WIND       PRES   REMARKS
GREENVILLE     NOT AVBL
ROCK HILL      CLEAR     70  68  93 S5        30.12S
ANDERSON       CLEAR     70  67  90 CALM      30.12S
CLEMSON        NOT AVBL
GREENWOOD      CLEAR     70  68  93 SW3       30.13S


...................COASTAL AND OFFSHORE REPORTS..................

................LOCAL PIERS AND NC RESERVE................


STATION/POSITION TIME  SKY/WX   TEMP    WIND        PRES    VSBY
                                AIR SEA DIR/SP/G
                 (UTC)          (F)     (DEG/KT/KT) (MB)    (MI)
JOHNY MRCER PIER 0400            75 83  280/  4/  5   N/A
NC RESRV MASNBRO NOT AVBL
OCEAN CREST PIER NOT AVBL
SPRINGMAID  PIER 0400            76 82   CALM  /  2   N/A


................COASTAL AND OFFSHORE BUOYS................


STATION/POSITION TIME  SKY/WX   TEMP    WIND        PRES    VSBY
                                AIR SEA DIR/SP/G
                 (UTC)          (F)     (DEG/KT/KT) (MB)    (MI)
DIMNDSHOAL 41025 0450            81 84  180/ 12/ 16 1017.6F
WVE H/P(F/S)=  4/ 5 WND WVE H/P(F/S)=  3/ 5 SWL H/P/D(F/S/D)=  3/100/ 9

CAPE LOOKOUT     0500            78     190/  5/  7 1016.8F
ONSLOW BAY 41036 NOT AVBL
ONSLOW BAY 41064 0408            81 81  200/ 10/ 14 1017.3F
ONSLOW BAY 41159 0425               81                N/A
WVE H/P(F/S)=  5/ 7 WND WVE H/P(F/S)=  5/ 7

5SE WRITBC 41038 0408            77 81  300/  8/ 12 1017.3R
MASNBO INL 41110 0419               82                N/A
WVE H/P(F/S)=  3/ 6 WND WVE H/P(F/S)=  3/ 6

WILM HARBR 41108 0411               82                N/A
WVE H/P(F/S)=  3/ 7 WND WVE H/P(F/S)=  3/ 7

27SE WRITB 41037 0400            76 81  250/  8/ 12   N/A
FRYING PAN 41013 0450            80 81  260/ 10/ 12 1018.3R
WVE H/P(F/S)=  4/ 7 WND WVE H/P(F/S)=  2/ 5 SWL H/P/D(F/S/D)=  3/180/ 7

SUNST NRSH 41024 0408            77     270/  4/  8 1018.0S
CAPRS NRSH 41029 0408            82     350/  4/  6 1018.8R
EDISTO     41004 0450            81 83  250/  6/  8 1018.2F
WVE H/P(F/S)=  3/ 8 WND WVE H/P(F/S)=  2/ 3 SWL H/P/D(F/S/D)=  3/ 8



..........OFFSHORE BUOYS BEYOND 100 NM OFFSHORE...........
.....IN A TRIANGLE---HAT TO BERMUDA TO BAHAMAS TO HAT.....


STATION/POSITION TIME  SKY/WX   TEMP    WIND        PRES    VSBY
                                AIR SEA DIR/SP/G
                 (UTC)          (F)     (DEG/KT/KT) (MB)    (MI)
150E HAT   41001 0500            80 82  180/ 10/ 12 1019.0F
W BERMUDA  41048 0450            83 84  250/  6/  8 1020.2F
WVE H/P(F/S)=  3/10 WND WVE H/P(F/S)=  2/ 4 SWL H/P/D(F/S/D)=  2/ 80/10

ATLANTIC S 41049 0450            84 86  350/  6/  6 1019.8F
WVE H/P(F/S)=  3/ 9 SWL H/P/D(F/S/D)=  3/ 60/ 9

E BAHAMAS  41046 0450            84 86  100/ 10/ 12 1019.2F
WVE H/P(F/S)=  3/ 8 WND WVE H/P(F/S)=  2/ 4 SWL H/P/D(F/S/D)=  3/110/ 8

NE BAHAMAS 41047 0450            83 85  130/ 10/ 12 1019.7F
WVE H/P(F/S)=  3/10 WND WVE H/P(F/S)=  2/ 5 SWL H/P/D(F/S/D)=  3/ 70/10

120E CANVRL41010 0420            84 85  160/ 10/ 12 1019.0R

END



USA.gov is the U.S. government's official web portal to all federal, state and local government web resources and services.